0608900041,1994,05,01,00,0.58
0608900041,1994,05,01,01,0.45
0608900041,1994,05,01,03,0.29
0608900041,1994,05,01,04,0.18
0608900041,1994,05,01,05,0.57
0608900041,1994,05,01,06,0.66
0608900041,1994,05,02,10,4.7
0608900041,1994,05,02,11,5.71
0608900041,1994,05,02,12,6.49
0608900041,1994,05,02,13,6.07
0608900041,1994,05,02,14,5.51
0608900041,1994,05,02,15,5.76
0608900041,1994,05,02,16,5.84
0608900041,1994,05,02,17,5.51
0608900041,1994,05,02,18,5.47
0608900041,1994,05,02,19,2.96
0608900041,1994,05,02,20,1.29
0608900041,1994,05,02,21,1.38
0608900041,1994,05,02,22,1.69
0608900041,1994,05,02,23,1.28
0608900041,1994,05,03,00,1.18
0608900041,1994,05,03,01,1.34
0608900041,1994,05,03,03,1.33
0608900041,1994,05,03,04,1.13
0608900041,1994,05,03,05,0.89
0608900041,1994,05,03,06,0.82
0608900041,1994,05,03,07,2.14
0608900041,1994,05,03,08,1.79
0608900041,1994,05,03,09,2.65
0608900041,1994,05,03,10,3.51
0608900041,1994,05,03,11,3.72
0608900041,1994,05,03,12,4.7
0608900041,1994,05,03,13,5.86
0608900041,1994,05,03,14,4.98
0608900041,1994,05,03,15,2.94
0608900041,1994,05,03,16,3.45
0608900041,1994,05,03,17,3.29
0608900041,1994,05,03,18,1.14
0608900041,1994,05,03,19,0.39
0608900041,1994,05,03,20,0.68
0608900041,1994,05,04,08,3.59
0608900041,1994,05,04,09,0.41
0608900041,1994,05,04,10,3.51
0608900041,1994,05,04,11,2.65
0608900041,1994,05,04,12,2.67
0608900041,1994,05,04,13,2.12
0608900041,1994,05,04,14,2.72
0608900041,1994,05,04,15,2.35
0608900041,1994,05,04,16,1.68
0608900041,1994,05,04,17,1.15
0608900041,1994,05,13,09,5.13
0608900041,1994,05,13,10,5.31
0608900041,1994,05,13,11,5.58
0608900041,1994,05,13,12,5.89
0608900041,1994,05,13,13,6.05
0608900041,1994,05,13,14,6.27
0608900041,1994,05,13,15,6.51
0608900041,1994,05,13,16,6.59
0608900041,1994,05,13,17,6.27
0608900041,1994,05,13,18,5.08
0608900041,1994,05,13,19,4.8
0608900041,1994,05,13,20,4.93
0608900041,1994,05,13,21,5.07
0608900041,1994,05,13,22,4.79
0608900041,1994,05,13,23,3.47
0608900041,1994,05,14,00,2.67
0608900041,1994,05,14,01,1.71
0608900041,1994,05,14,03,0.74
0608900041,1994,05,14,04,0.62
0608900041,1994,05,14,05,0.86
0608900041,1994,05,14,06,1.12
0608900041,1994,05,14,07,3.22
0608900041,1994,05,14,08,3.13
0608900041,1994,05,14,09,4.65
0608900041,1994,05,14,10,5.11
0608900041,1994,05,14,11,5.72
0608900041,1994,05,14,12,6.48
0608900041,1994,05,14,13,6.98
0608900041,1994,05,14,14,7.26
0608900041,1994,05,14,15,7.33
0608900041,1994,05,14,16,7.21
0608900041,1994,05,14,17,7.51
0608900041,1994,05,14,18,7.13
0608900041,1994,05,14,19,7.01
0608900041,1994,05,14,20,5.91
0608900041,1994,05,14,21,6.15
0608900041,1994,05,14,22,5.65
0608900041,1994,05,14,23,4.87
0608900041,1994,05,15,00,3.83
0608900041,1994,05,15,01,3.66
0608900041,1994,05,15,03,3.01
0608900041,1994,05,15,04,2.76
0608900041,1994,05,15,05,3.86
0608900041,1994,05,15,06,4.78
0608900041,1994,05,15,07,4.78
0608900041,1994,05,15,08,4.97
0608900041,1994,05,15,09,4.61
0608900041,1994,05,15,10,4.88
0608900041,1994,05,15,11,4.93
0608900041,1994,05,15,12,4.98
0608900041,1994,05,15,13,4.74
0608900041,1994,05,15,14,4.59
0608900041,1994,05,15,15,4.5
0608900041,1994,05,15,16,4.27
0608900041,1994,05,15,17,3.76
0608900041,1994,05,15,18,3.33
0608900041,1994,05,15,19,2.62
0608900041,1994,05,15,20,2.68
0608900041,1994,05,15,21,2.57
0608900041,1994,05,15,22,1.33
0608900041,1994,05,15,23,1.26
0608900041,1994,05,16,00,1.44
0608900041,1994,05,16,01,1.15
0608900041,1994,05,16,03,0.73
0608900041,1994,05,16,04,0.65
0608900041,1994,05,16,05,0.67
0608900041,1994,05,16,06,0.7
0608900041,1994,05,16,07,1.38
0608900041,1994,05,16,08,2.43
0608900041,1994,05,16,09,3.26
0608900041,1994,05,16,10,4
0608900041,1994,05,16,11,4.29
0608900041,1994,05,16,12,3.48
0608900041,1994,05,16,13,2.86
0608900041,1994,05,16,14,3.82
0608900041,1994,05,16,15,3.99
0608900041,1994,05,16,16,3.71
0608900041,1994,05,16,17,3.9
0608900041,1994,05,16,18,3.91
0608900041,1994,05,16,19,3.12
0608900041,1994,05,16,20,2.48
0608900041,1994,05,16,21,2.34
0608900041,1994,05,16,22,2.2
0608900041,1994,05,16,23,2.11
0608900041,1994,05,17,00,1.81
0608900041,1994,05,17,01,2.04
0608900041,1994,05,17,03,1.38
0608900041,1994,05,17,04,1.48
0608900041,1994,05,17,05,1.1
0608900041,1994,05,17,06,1.61
0608900041,1994,05,17,07,2.14
0608900041,1994,05,17,08,2.92
0608900041,1994,05,17,09,3.47
0608900041,1994,05,17,10,4.18
0608900041,1994,05,17,12,4.16
0608900041,1994,05,17,13,4.2
0608900041,1994,05,17,14,4.14
0608900041,1994,05,17,15,3.62
0608900041,1994,05,17,16,3.91
0608900041,1994,05,17,17,3.14
0608900041,1994,05,17,18,2.66
0608900041,1994,05,17,19,2.05
0608900041,1994,05,17,20,1.53
0608900041,1994,05,17,21,2.21
0608900041,1994,05,17,22,1.24
0608900041,1994,05,17,23,0.67
0608900041,1994,05,18,00,1.79
0608900041,1994,05,18,01,2.27
0608900041,1994,05,18,03,1.84
0608900041,1994,05,18,04,1.81
0608900041,1994,05,18,05,1.97
0608900041,1994,05,18,06,2.01
0608900041,1994,05,18,07,2.49
0608900041,1994,05,18,08,2.92
0608900041,1994,05,18,09,3.17
0608900041,1994,05,18,10,3.51
0608900041,1994,05,18,11,3.8
0608900041,1994,05,18,12,4
0608900041,1994,05,18,13,3.67
0608900041,1994,05,18,14,4.03
0608900041,1994,05,18,15,4.13
0608900041,1994,05,18,16,4.22
0608900041,1994,05,18,17,4.19
0608900041,1994,05,18,18,3.84
0608900041,1994,05,18,19,3.26
0608900041,1994,05,18,20,3.09
0608900041,1994,05,18,21,2.35
0608900041,1994,05,18,22,1.41
0608900041,1994,05,18,23,1.19
0608900041,1994,05,19,00,0.59
0608900041,1994,05,19,01,0.55
0608900041,1994,05,19,03,1.85
0608900041,1994,05,19,04,1.98
0608900041,1994,05,19,05,1.75
0608900041,1994,05,19,06,1.94
0608900041,1994,05,19,07,2.42
0608900041,1994,05,19,08,2.73
0608900041,1994,05,19,09,2.85
0608900041,1994,05,19,10,2.94
0608900041,1994,05,19,11,3.23
0608900041,1994,05,19,16,4.42
0608900041,1994,05,19,17,3.82
0608900041,1994,05,19,18,3.5
0608900041,1994,05,19,19,3.37
0608900041,1994,05,19,20,2.03
0608900041,1994,05,19,21,1.13
0608900041,1994,05,19,22,1.61
0608900041,1994,05,19,23,1.9
0608900041,1994,05,20,00,1.83
0608900041,1994,05,20,01,2.59
0608900041,1994,05,20,03,1.79
0608900041,1994,05,20,04,0.88
0608900041,1994,05,20,05,0.88
0608900041,1994,05,20,06,1.31
0608900041,1994,05,20,07,2.05
0608900041,1994,05,20,09,2.19
0608900041,1994,05,20,10,3.92
0608900041,1994,05,20,11,4.26
0608900041,1994,05,20,12,4.26
0608900041,1994,05,20,13,4.45
0608900041,1994,05,20,14,4.22
0608900041,1994,05,20,15,4.14
0608900041,1994,05,20,16,3.83
0608900041,1994,05,20,17,4.15
0608900041,1994,05,20,18,4
0608900041,1994,05,20,19,3.2
0608900041,1994,05,20,20,1.43
0608900041,1994,05,20,21,0.95
0608900041,1994,05,20,22,0.4
0608900041,1994,05,20,23,0.66
0608900041,1994,05,21,00,0.76
0608900041,1994,05,21,01,1.1
0608900041,1994,05,21,03,1.04
0608900041,1994,05,21,04,0.88
0608900041,1994,05,21,05,0.53
0608900041,1994,05,21,06,1.82
0608900041,1994,05,21,07,3.01
0608900041,1994,05,21,08,3.14
0608900041,1994,05,21,09,3.98
0608900041,1994,05,21,10,4.71
0608900041,1994,05,21,11,5.6
0608900041,1994,05,21,12,6.13
0608900041,1994,05,21,13,6.27
0608900041,1994,05,21,14,6.05
0608900041,1994,05,21,15,5.78
0608900041,1994,05,21,16,5.73
0608900041,1994,05,21,17,5.43
0608900041,1994,05,21,18,5.13
0608900041,1994,05,21,19,4.06
0608900041,1994,05,21,20,4.01
0608900041,1994,05,21,21,3.8
0608900041,1994,05,21,22,4.13
0608900041,1994,05,21,23,3.81
0608900041,1994,05,22,00,3.45
0608900041,1994,05,22,01,3.2
0608900041,1994,05,22,03,2.45
0608900041,1994,05,22,04,1.66
0608900041,1994,05,22,05,1.7
0608900041,1994,05,22,06,2.93
0608900041,1994,05,22,07,3.3
0608900041,1994,05,22,08,4.04
0608900041,1994,05,22,09,4.7
0608900041,1994,05,22,10,5
0608900041,1994,05,22,11,5.48
0608900041,1994,05,22,12,5.97
0608900041,1994,05,22,13,6.15
0608900041,1994,05,22,14,6.35
0608900041,1994,05,22,15,6.44
0608900041,1994,05,22,16,6.72
0608900041,1994,05,22,17,6.86
0608900041,1994,05,22,18,5.32
0608900041,1994,05,22,19,2.79
0608900041,1994,05,22,20,1.64
0608900041,1994,05,22,21,1.83
0608900041,1994,05,22,22,1.12
0608900041,1994,05,22,23,1.27
0608900041,1994,05,23,00,2.06
0608900041,1994,05,23,01,2.76
0608900041,1994,05,23,03,2.9
0608900041,1994,05,23,04,2.6
0608900041,1994,05,23,05,2.5
0608900041,1994,05,23,06,2.27
0608900041,1994,05,23,07,2.79
0608900041,1994,05,23,08,3.71
0608900041,1994,05,23,09,5.12
0608900041,1994,05,23,10,5.67
0608900041,1994,05,23,11,6.23
0608900041,1994,05,23,12,6.38
0608900041,1994,05,23,13,6.99
0608900041,1994,05,23,14,7.83
0608900041,1994,05,23,15,8.05
0608900041,1994,05,23,16,8.3
0608900041,1994,05,23,17,7.86
0608900041,1994,05,23,18,6.94
0608900041,1994,05,23,19,4.04
0608900041,1994,05,23,20,3.74
0608900041,1994,05,23,21,2.76
0608900041,1994,05,23,22,2.67
0608900041,1994,05,23,23,3.11
0608900041,1994,05,24,00,3.8
0608900041,1994,05,24,01,3.28
0608900041,1994,05,24,03,2.17
0608900041,1994,05,24,04,4.08
0608900041,1994,05,24,05,1.19
0608900041,1994,05,24,06,1.31
0608900041,1994,05,24,07,3.5
0608900041,1994,05,24,08,4.26
0608900041,1994,05,24,09,4.92
0608900041,1994,05,24,10,5.28
0608900041,1994,05,24,11,5.78
0608900041,1994,05,24,12,6.01
0608900041,1994,05,24,13,6.19
0608900041,1994,05,24,14,7.3
0608900041,1994,05,24,15,6.35
0608900041,1994,05,24,16,6.05
0608900041,1994,05,24,17,7.47
0608900041,1994,05,24,18,6.06
0608900041,1994,05,24,19,5.55
0608900041,1994,05,24,20,4.33
0608900041,1994,05,24,21,4.43
0608900041,1994,05,24,22,2.84
0608900041,1994,05,24,23,3.15
0608900041,1994,05,25,00,3.51
0608900041,1994,05,25,01,2.86
0608900041,1994,05,25,03,3.06
0608900041,1994,05,25,04,3.76
0608900041,1994,05,25,05,4.05
0608900041,1994,05,25,06,3.81
0608900041,1994,05,25,07,3.11
0608900041,1994,05,25,08,3.8
0608900041,1994,05,25,09,4.82
0608900041,1994,05,25,10,5.81
0608900041,1994,05,25,11,6.62
0608900041,1994,05,25,12,7.18
0608900041,1994,05,25,13,7.29
0608900041,1994,05,25,14,7.56
0608900041,1994,05,25,15,6.93
0608900041,1994,05,25,16,8.94
0608900041,1994,05,25,17,9.38
0608900041,1994,05,25,18,8.66
0608900041,1994,05,25,19,8.18
0608900041,1994,05,25,20,7.38
0608900041,1994,05,25,21,5.41
0608900041,1994,05,25,22,4.36
0608900041,1994,05,25,23,4.29
0608900041,1994,05,26,00,4.58
0608900041,1994,05,26,01,4.52
0608900041,1994,05,26,03,5.33
0608900041,1994,05,26,04,4.83
0608900041,1994,05,26,05,3.05
0608900041,1994,05,26,06,1.61
0608900041,1994,05,26,07,1.81
0608900041,1994,05,26,08,2.54
0608900041,1994,05,26,09,3.1
0608900041,1994,05,26,10,3.76
0608900041,1994,05,26,11,4.47
0608900041,1994,05,26,12,4.94
0608900041,1994,05,26,13,5.3
0608900041,1994,05,26,14,5.31
0608900041,1994,05,26,15,5.37
0608900041,1994,05,26,16,5.39
0608900041,1994,05,26,17,5.8
0608900041,1994,05,26,18,5.9
0608900041,1994,05,26,19,5.53
0608900041,1994,05,26,20,4.32
0608900041,1994,05,26,21,4.09
0608900041,1994,05,26,22,3.96
0608900041,1994,05,26,23,3.75
0608900041,1994,05,27,00,3.4
0608900041,1994,05,27,01,3.09
0608900041,1994,05,27,03,2.52
0608900041,1994,05,27,04,2.42
0608900041,1994,05,27,05,1.47
0608900041,1994,05,27,06,1.87
0608900041,1994,05,27,07,2.67
0608900041,1994,05,27,08,3.52
0608900041,1994,05,27,09,4.47
0608900041,1994,05,27,10,5.8
0608900041,1994,05,27,11,7.12
0608900041,1994,05,27,12,7.91
0608900041,1994,05,27,13,7.59
0608900041,1994,05,27,14,6.9
0608900041,1994,05,27,15,6.45
0608900041,1994,05,27,16,6.96
0608900041,1994,05,27,17,6.74
0608900041,1994,05,27,18,6.9
0608900041,1994,05,27,19,7.07
0608900041,1994,05,27,20,6.35
0608900041,1994,05,27,21,5.06
0608900041,1994,05,27,22,4.29
0608900041,1994,05,27,23,3.94
0608900041,1994,05,28,00,3.16
0608900041,1994,05,28,01,3.54
0608900041,1994,05,28,03,3.32
0608900041,1994,05,28,04,3.48
0608900041,1994,05,28,05,4.15
0608900041,1994,05,28,06,4.28
0608900041,1994,05,28,07,5.82
0608900041,1994,05,28,08,5.95
0608900041,1994,05,28,09,7.34
0608900041,1994,05,28,10,8.07
0608900041,1994,05,28,11,8.55
0608900041,1994,05,28,12,8.33
0608900041,1994,05,28,13,7.77
0608900041,1994,05,28,14,7.95
0608900041,1994,05,28,15,8.41
0608900041,1994,05,28,16,8.54
0608900041,1994,05,28,17,8.47
0608900041,1994,05,28,18,8.09
0608900041,1994,05,28,19,6.61
0608900041,1994,05,28,20,5.08
0608900041,1994,05,28,21,5.01
0608900041,1994,05,28,22,4.83
0608900041,1994,05,28,23,4.35
0608900041,1994,05,29,00,3.66
0608900041,1994,05,29,01,3.96
0608900041,1994,05,29,03,3.28
0608900041,1994,05,29,04,3.07
0608900041,1994,05,29,05,3.3
0608900041,1994,05,29,06,4.07
0608900041,1994,05,29,07,4.55
0608900041,1994,05,29,08,4.02
0608900041,1994,05,29,09,5.4
0608900041,1994,05,29,10,5.98
0608900041,1994,05,29,11,5.89
0608900041,1994,05,29,12,6.03
0608900041,1994,05,29,13,5.76
0608900041,1994,05,29,14,5.26
0608900041,1994,05,29,15,5.7
0608900041,1994,05,29,16,5.55
0608900041,1994,05,29,17,5.69
0608900041,1994,05,29,18,5.82
0608900041,1994,05,29,19,5.06
0608900041,1994,05,29,20,3.94
0608900041,1994,05,29,21,4.36
0608900041,1994,05,29,22,3.76
0608900041,1994,05,29,23,3.13
0608900041,1994,05,30,00,2.87
0608900041,1994,05,30,01,3.25
0608900041,1994,05,30,03,3.22
0608900041,1994,05,30,04,4.08
0608900041,1994,05,30,05,4.47
0608900041,1994,05,30,06,4.57
0608900041,1994,05,30,07,4.96
0608900041,1994,05,30,08,4.34
0608900041,1994,05,30,09,3.94
0608900041,1994,05,30,10,3.67
0608900041,1994,05,30,11,3.61
0608900041,1994,05,30,12,3.88
0608900041,1994,05,30,13,4.7
0608900041,1994,05,30,14,5.05
0608900041,1994,05,30,15,4.05
0608900041,1994,05,30,16,3.24
0608900041,1994,05,30,17,4.01
0608900041,1994,05,30,18,4.22
0608900041,1994,05,30,19,5.6
0608900041,1994,05,30,20,6.11
0608900041,1994,05,30,21,4.18
0608900041,1994,05,30,22,4.1
0608900041,1994,05,30,23,3.51
0608900041,1994,05,31,00,5.34
0608900041,1994,05,31,01,5.25
0608900041,1994,05,31,03,7.16
0608900041,1994,05,31,04,5.26
0608900041,1994,05,31,05,4.35
0608900041,1994,05,31,06,3.93
0608900041,1994,05,31,07,4.22
0608900041,1994,05,31,08,4.44
0608900041,1994,05,31,09,4.52
0608900041,1994,05,31,11,4.27
0608900041,1994,05,31,12,4.41
0608900041,1994,05,31,13,4.41
0608900041,1994,05,31,14,4.79
0608900041,1994,05,31,15,5.12
0608900041,1994,05,31,16,5.41
0608900041,1994,05,31,17,5.29
0608900041,1994,05,31,18,3.16
0608900041,1994,05,31,19,1.27
0608900041,1994,05,31,20,1.31
0608900041,1994,05,31,21,0.23
0608900041,1994,05,31,22,0.16
0608900041,1994,05,31,23,0.12
0608900041,1994,06,01,00,0.23
0608900041,1994,06,01,01,1.46
0608900041,1994,06,01,02,0
0608900041,1994,06,01,03,1.58
0608900041,1994,06,01,04,1.19
0608900041,1994,06,01,05,0.83
0608900041,1994,06,01,06,0.98
0608900041,1994,06,01,07,1.52
0608900041,1994,06,01,08,1.87
0608900041,1994,06,01,09,2.25
0608900041,1994,06,01,10,2.56
0608900041,1994,06,01,11,3.02
0608900041,1994,06,01,12,3.46
0608900041,1994,06,01,13,4.19
0608900041,1994,06,01,14,4.61
0608900041,1994,06,01,15,5.13
0608900041,1994,06,01,16,5.85
0608900041,1994,06,01,17,5.44
0608900041,1994,06,01,18,4.5
0608900041,1994,06,01,19,1.9
0608900041,1994,06,01,20,1.95
0608900041,1994,06,01,21,2.34
0608900041,1994,06,01,22,2.58
0608900041,1994,06,01,23,3.11
0608900041,1994,06,02,00,2.65
0608900041,1994,06,02,01,1.47
0608900041,1994,06,02,02,0
0608900041,1994,06,02,03,0.18
0608900041,1994,06,02,04,0.13
0608900041,1994,06,02,05,0.13
0608900041,1994,06,02,06,0.22
0608900041,1994,06,02,07,1.06
0608900041,1994,06,02,08,1.96
0608900041,1994,06,02,09,2.91
0608900041,1994,06,02,10,3.94
0608900041,1994,06,02,11,4.68
0608900041,1994,06,02,12,5.04
0608900041,1994,06,02,13,5.46
0608900041,1994,06,02,14,5.23
0608900041,1994,06,02,15,5.5
0608900041,1994,06,02,16,5.72
0608900041,1994,06,02,17,6.38
0608900041,1994,06,02,18,5.32
0608900041,1994,06,02,19,4.3
0608900041,1994,06,02,20,2.6
0608900041,1994,06,02,21,3.37
0608900041,1994,06,02,22,2.31
0608900041,1994,06,02,23,1.07
0608900041,1994,06,03,00,1.13
0608900041,1994,06,03,01,0.95
0608900041,1994,06,03,02,0
0608900041,1994,06,03,03,0.36
0608900041,1994,06,03,04,0.17
0608900041,1994,06,03,05,0.41
0608900041,1994,06,03,06,0.69
0608900041,1994,06,03,07,2.21
0608900041,1994,06,03,08,2.95
0608900041,1994,06,03,09,3.58
0608900041,1994,06,03,10,4.72
0608900041,1994,06,03,11,5.25
0608900041,1994,06,03,12,5.16
0608900041,1994,06,03,13,4.92
0608900041,1994,06,03,14,5.17
0608900041,1994,06,03,15,5.43
0608900041,1994,06,03,16,5.26
0608900041,1994,06,03,17,3.62
0608900041,1994,06,03,18,2.28
0608900041,1994,06,03,19,1.32
0608900041,1994,06,03,20,1.01
0608900041,1994,06,03,21,0.31
0608900041,1994,06,03,22,0.11
0608900041,1994,06,03,23,0.17
0608900041,1994,06,04,00,0.14
0608900041,1994,06,04,01,0.11
0608900041,1994,06,04,02,0
0608900041,1994,06,04,03,0.77
0608900041,1994,06,04,04,0.1
0608900041,1994,06,04,05,0.27
0608900041,1994,06,04,06,0.72
0608900041,1994,06,04,07,1.58
0608900041,1994,06,04,08,2.24
0608900041,1994,06,04,09,2.72
0608900041,1994,06,04,10,3.72
0608900041,1994,06,04,11,4.17
0608900041,1994,06,04,12,4.43
0608900041,1994,06,04,13,4.15
0608900041,1994,06,04,14,4.17
0608900041,1994,06,04,15,4.24
0608900041,1994,06,04,16,4.23
0608900041,1994,06,04,17,4.36
0608900041,1994,06,04,18,4.03
0608900041,1994,06,04,19,2.53
0608900041,1994,06,04,20,1.27
0608900041,1994,06,04,21,2.08
0608900041,1994,06,04,22,2.32
0608900041,1994,06,04,23,1.89
0608900041,1994,06,05,00,1.09
0608900041,1994,06,05,01,0.63
0608900041,1994,06,05,02,0
0608900041,1994,06,05,03,1.43
0608900041,1994,06,05,04,1.21
0608900041,1994,06,05,05,1.2
0608900041,1994,06,05,06,1.62
0608900041,1994,06,05,07,1.88
0608900041,1994,06,05,08,2.01
0608900041,1994,06,05,09,1.93
0608900041,1994,06,05,10,2.14
0608900041,1994,06,05,11,2.8
0608900041,1994,06,05,12,3.54
0608900041,1994,06,05,13,3.55
0608900041,1994,06,05,14,3.77
0608900041,1994,06,05,15,3.63
0608900041,1994,06,05,16,3.55
0608900041,1994,06,05,17,3.24
0608900041,1994,06,05,18,2.92
0608900041,1994,06,05,19,2.88
0608900041,1994,06,05,20,2.1
0608900041,1994,06,05,21,2.96
0608900041,1994,06,05,22,3.02
0608900041,1994,06,05,23,2.46
0608900041,1994,06,06,00,1.99
0608900041,1994,06,06,01,1.05
0608900041,1994,06,06,02,0
0608900041,1994,06,06,03,1.16
0608900041,1994,06,06,04,1.02
0608900041,1994,06,06,05,0.81
0608900041,1994,06,06,06,1.89
0608900041,1994,06,06,07,2.26
0608900041,1994,06,06,08,2.7
0608900041,1994,06,06,09,0
0608900041,1994,06,06,10,3.22
0608900041,1994,06,06,11,3.26
0608900041,1994,06,06,12,3.46
0608900041,1994,06,06,13,3.74
0608900041,1994,06,06,14,3.6
0608900041,1994,06,06,15,3.38
0608900041,1994,06,06,16,2.41
0608900041,1994,06,06,17,2.3
0608900041,1994,06,06,18,2.31
0608900041,1994,06,06,19,2.49
0608900041,1994,06,06,20,2.56
0608900041,1994,06,06,21,2.73
0608900041,1994,06,06,22,2.68
0608900041,1994,06,06,23,2.9
0608900041,1994,06,07,00,2.83
0608900041,1994,06,07,01,2.75
0608900041,1994,06,07,02,0
0608900041,1994,06,07,03,3.05
0608900041,1994,06,07,04,2.86
0608900041,1994,06,07,05,2.42
0608900041,1994,06,07,06,2.07
0608900041,1994,06,07,07,2.04
0608900041,1994,06,07,08,2.63
0608900041,1994,06,07,09,2.71
0608900041,1994,06,07,10,3.56
0608900041,1994,06,07,11,4.19
0608900041,1994,06,07,12,4.44
0608900041,1994,06,07,13,4.24
0608900041,1994,06,07,14,4
0608900041,1994,06,07,15,3
0608900041,1994,06,07,16,3
0608900041,1994,06,07,17,3
0608900041,1994,06,07,18,3
0608900041,1994,06,07,19,2
0608900041,1994,06,07,20,3
0608900041,1994,06,07,21,3
0608900041,1994,06,07,22,2
0608900041,1994,06,07,23,2
0608900041,1994,06,08,00,3
0608900041,1994,06,08,01,2
0608900041,1994,06,08,02,0
0608900041,1994,06,08,03,2
0608900041,1994,06,08,04,2
0608900041,1994,06,08,05,2
0608900041,1994,06,08,06,3
0608900041,1994,06,08,07,2.62
0608900041,1994,06,08,08,3.58
0608900041,1994,06,08,09,4.11
0608900041,1994,06,08,10,3.87
0608900041,1994,06,08,11,4.35
0608900041,1994,06,08,12,4.55
0608900041,1994,06,08,13,5.23
0608900041,1994,06,08,14,5.08
0608900041,1994,06,08,15,4.42
0608900041,1994,06,08,16,5.18
0608900041,1994,06,08,17,5.56
0608900041,1994,06,08,18,5.09
0608900041,1994,06,08,19,4.01
0608900041,1994,06,08,20,1.79
0608900041,1994,06,08,21,2.3
0608900041,1994,06,08,22,3.03
0608900041,1994,06,08,23,2.97
0608900041,1994,06,09,00,2.44
0608900041,1994,06,09,01,3.09
0608900041,1994,06,09,02,0
0608900041,1994,06,09,03,3.82
0608900041,1994,06,09,04,4.07
0608900041,1994,06,09,05,4.05
0608900041,1994,06,09,06,3.86
0608900041,1994,06,09,07,4.08
0608900041,1994,06,09,08,4.17
0608900041,1994,06,09,09,4.07
0608900041,1994,06,09,10,3.71
0608900041,1994,06,09,11,3.85
0608900041,1994,06,09,12,3.95
0608900041,1994,06,09,13,4.24
0608900041,1994,06,09,14,3.85
0608900041,1994,06,09,15,4.14
0608900041,1994,06,09,16,4.46
0608900041,1994,06,09,17,4.57
0608900041,1994,06,09,18,4.5
0608900041,1994,06,09,19,3.85
0608900041,1994,06,09,20,3.68
0608900041,1994,06,09,21,4.28
0608900041,1994,06,09,22,4.05
0608900041,1994,06,09,23,4.31
0608900041,1994,06,10,00,4.18
0608900041,1994,06,10,01,3.98
0608900041,1994,06,10,02,0
0608900041,1994,06,10,03,3.79
0608900041,1994,06,10,04,3.62
0608900041,1994,06,10,05,3.37
0608900041,1994,06,10,06,3.2
0608900041,1994,06,10,07,3.74
0608900041,1994,06,10,08,4.1
0608900041,1994,06,10,09,4.29
0608900041,1994,06,10,10,4.56
0608900041,1994,06,10,11,5.01
0608900041,1994,06,10,12,5.45
0608900041,1994,06,10,13,5.91
0608900041,1994,06,10,14,5.84
0608900041,1994,06,10,15,4.85
0608900041,1994,06,10,16,5.13
0608900041,1994,06,10,17,6.25
0608900041,1994,06,10,18,5.52
0608900041,1994,06,10,19,3.06
0608900041,1994,06,10,20,2.41
0608900041,1994,06,10,21,0.94
0608900041,1994,06,10,22,1.34
0608900041,1994,06,10,23,1.88
0608900041,1994,06,11,00,1.94
0608900041,1994,06,11,01,1.9
0608900041,1994,06,11,02,0
0608900041,1994,06,11,03,1.68
0608900041,1994,06,11,04,1.6
0608900041,1994,06,11,05,1.36
0608900041,1994,06,11,06,2.05
0608900041,1994,06,11,07,2.55
0608900041,1994,06,11,08,4.06
0608900041,1994,06,11,09,5.71
0608900041,1994,06,11,10,6.58
0608900041,1994,06,11,11,7.42
0608900041,1994,06,11,12,8
0608900041,1994,06,11,13,7.69
0608900041,1994,06,11,14,7.81
0608900041,1994,06,11,15,7.7
0608900041,1994,06,11,16,7.36
0608900041,1994,06,11,17,6.78
0608900041,1994,06,11,18,3.92
0608900041,1994,06,11,19,3.47
0608900041,1994,06,11,20,3.31
0608900041,1994,06,11,21,3.19
0608900041,1994,06,11,22,2.92
0608900041,1994,06,11,23,2.73
0608900041,1994,06,12,00,2.56
0608900041,1994,06,12,01,2.55
0608900041,1994,06,12,02,0
0608900041,1994,06,12,03,0.89
0608900041,1994,06,12,04,0.57
0608900041,1994,06,12,05,0.75
0608900041,1994,06,12,06,1.18
0608900041,1994,06,12,07,2.23
0608900041,1994,06,12,08,3.13
0608900041,1994,06,12,09,3.46
0608900041,1994,06,12,10,3.71
0608900041,1994,06,12,11,3.58
0608900041,1994,06,12,12,4.36
0608900041,1994,06,12,13,4.77
0608900041,1994,06,12,14,5.75
0608900041,1994,06,12,15,5.86
0608900041,1994,06,12,16,5.93
0608900041,1994,06,12,17,3.77
0608900041,1994,06,12,18,2.98
0608900041,1994,06,12,19,2.74
0608900041,1994,06,12,20,1.92
0608900041,1994,06,12,21,2.25
0608900041,1994,06,12,22,2.52
0608900041,1994,06,12,23,2.62
0608900041,1994,06,13,00,3.77
0608900041,1994,06,13,01,3.87
0608900041,1994,06,13,02,0
0608900041,1994,06,13,03,2.46
0608900041,1994,06,13,04,1.94
0608900041,1994,06,13,05,1.23
0608900041,1994,06,13,06,1.9
0608900041,1994,06,13,07,3.08
0608900041,1994,06,13,08,4.82
0608900041,1994,06,13,09,0
0608900041,1994,06,13,10,4.1
0608900041,1994,06,13,11,4.5
0608900041,1994,06,13,12,4.6
0608900041,1994,06,13,13,4.76
0608900041,1994,06,13,14,4.75
0608900041,1994,06,13,15,4.68
0608900041,1994,06,13,16,4.8
0608900041,1994,06,13,17,5.13
0608900041,1994,06,13,18,5.31